This is the latest recevied weather packets stored in our database for station/object K6OUA-11. If no packets are shown the sender has not sent any weather packets the latest 10 day(s).
| Time | Temp. | Humidity | Pressure | Rain* | Wind** | Luminosity | Snow |
|---|---|---|---|---|---|---|---|
| 1778007413 | 18.33° C | 55% | - | 0 mm | - | - | - |
| 1778007290 | 18.33° C | 55% | - | 0 mm | - | - | - |
| 1778007168 | 18.33° C | 55% | - | 0 mm | - | - | - |
| 1778007047 | 18.89° C | 55% | - | 0 mm | - | - | - |
| 1778006803 | 18.33° C | 53% | - | 0 mm | - | - | - |
| 1778006681 | 18.89° C | 53% | - | 0 mm | - | - | - |
| 1778006559 | 18.89° C | 55% | - | 0 mm | - | - | - |
| 1778006438 | 18.89° C | 53% | - | 0 mm | - | - | - |
| 1778006315 | 18.89° C | 51% | - | 0 mm | - | - | - |
| 1778006193 | 19.44° C | 51% | - | 0 mm | - | - | - |
| 1778006072 | 18.89° C | 53% | - | 0 mm | - | - | - |
| 1778005950 | 18.89° C | 53% | - | 0 mm | - | - | - |
| 1778005706 | 18.33° C | 52% | - | 0 mm | - | - | - |
| 1778005584 | 18.33° C | 53% | - | 0 mm | - | - | - |
| 1778005462 | 18.33° C | 56% | - | 0 mm | - | - | - |
| 1778005340 | 18.33° C | 54% | - | 0 mm | - | - | - |
| 1778005218 | 18.33° C | 55% | - | 0 mm | - | - | - |
| 1778005097 | 18.89° C | 56% | - | 0 mm | - | - | - |
| 1778004853 | 18.33° C | 56% | - | 0 mm | - | - | - |
| 1778004731 | 18.33° C | 56% | - | 0 mm | - | - | - |
| 1778004609 | 17.78° C | 57% | - | 0 mm | - | - | - |
| 1778004487 | 18.33° C | 56% | - | 0 mm | - | - | - |
| 1778004363 | 18.33° C | 56% | - | 0 mm | - | - | - |
| 1778004243 | 18.33° C | 56% | - | 0 mm | - | - | - |
| 1778004121 | 18.33° C | 55% | - | 0 mm | - | - | - |
* Rain latest 24 hours (hover to see other rain measurements)
** Current wind speed in m/s (hover to see current wind gust speed)